Location: G�kdere
(37.0328°N, 30.9000°E)
Time: 02:31:02
(UTC+00:00)

CSL-04 Debris - Pass Details

Date: 03 March 2021
Orbit: 826 x 848 km, 98.9° (Epoch: 22 April)

Event Time Altitude Azimuth Distance (km) Brightness Sun altitude
Rises 16:38:55 0° 150° (SSE) 3,365 7.0 -10.1°
Reaches altitude 10° 16:41:18 10° 145° (SE) 2,439 6.3 -10.5°
Maximum altitude 16:46:30 50° 71° (ENE) 1,062 4.4 -11.6°
Drops below altitude 10° 16:51:45 10° 358° (N) 2,467 6.7 -12.6°
Sets 16:54:11 0° 353° (N) 3,409 7.5 -13.1°
